Location: Cruquius
(52.3348°N, 4.6319°E)
Time: 03:55:58
(UTC+00:00)

Cosmos 2297 - Pass Details

Date: 12 May 2021
Orbit: 837 x 857 km, 71.0° (Epoch: 14 June)

Event Time Altitude Azimuth Distance (km) Brightness Sun altitude
Exits shadow 22:50:30 15° 221° (SW) 2,129 5.4 -18.5°
Maximum altitude 22:55:15 70° 304° (WNW) 902 3.9 -18.7°
Drops below altitude 10° 23:00:56 10° 28° (NNE) 2,475 6.9 -18.8°
Sets 23:03:24 0° 31° (NNE) 3,411 7.7 -18.9°
